Regional Weather Roundup
Issued by NWS

Home | Current Version | Previous Version | Text Only | Print | Product List | Glossary Off
Versions: 1 2 3 4 5 6 7 8 9 10 11 12 13 14 15 16 17 18 19 20 21 22 23 24 25 26 27 28 29 30 31 32 33 34 35 36 37 38 39 40 41 42 43 44 45 46 47 48 49 50

000
ASUS45 KABQ 210901
RWRNM
NEW MEXICO REGIONAL WEATHER ROUNDUP
NATIONAL WEATHER SERVICE ALBUQUERQUE NM
200 AM MST TUE NOV 21 2017

NOTE: "FAIR" MEANS FEW OR NO CLOUDS BELOW 12,000 FEET AGL WITH NO
       SIGNIFICANT WEATHER OR OBSTRUCTIONS TO VISION.

      THIS PRODUCT IS RELEASED AS TWO VERSIONS.  ONE VERSION NEAR
      THE TOP OF THE HOUR CONTAINING PRELIMINARY DATA FROM ALBUQUERQUE
      AND OTHER STATIONS.  A FINAL VERSION WITH ADDITIONAL DATA IS
      ISSUED ABOUT 10 MINUTES AFTER THE HOUR.

NMZ501-503-504-510>518-211000-
NORTHWEST PLATEAU/NORTHCENTRAL MOUNTAINS

CITY           SKY/WX    TMP DP  RH WIND       PRES   REMARKS
FARMINGTON     FAIR      31   9  39 W9        30.16S WCI  23
LOS ALAMOS     FAIR      38   0  19 NE3       30.14F
SANTA FE       FAIR      40   0  18 N10       30.10R WCI  33
TAOS           FAIR      26   3  37 N7        30.16S WCI  18
ANGEL FIRE     FAIR      33   3  28 CALM      30.16R

$$
NMZ402-403-502-505>509-211000-
WESTCENTRAL MOUNTAINS/SOUTHWEST MOUNTAINS

CITY           SKY/WX    TMP DP  RH WIND       PRES   REMARKS
GALLUP         FAIR      23   5  46 NE5       30.23R WCI  17
GRANTS         FAIR      34   0  23 W15G25    30.20S WCI  25
SILVER CITY    FAIR      47  14  25 NW12      30.12S

$$
NMZ407-409-411-412-211000-
SOUTHERN DESERTS

CITY           SKY/WX    TMP DP  RH WIND       PRES   REMARKS
DEMING         FAIR      48  16  27 W13       30.08F
LAS CRUCES     FAIR      42  21  43 E6        30.08R
HOLLOMAN AFB   FAIR      37  13  37 NW9       30.07S WCI  31
ALAMOGORDO     FAIR      46  10  23 N7        30.05S
T OR C         FAIR      54  -4   9 NW15      30.07F

$$
NMZ519>523-211000-
CENTRAL VALLEYS/CENTRAL HIGHLANDS

CITY           SKY/WX    TMP DP  RH WIND       PRES   REMARKS
ALBUQUERQUE    MOCLDY    46   0  14 N7        30.12R
DOUBLE EAGLE   FAIR      44   2  17 NW15G21   30.13S
MORIARTY ARPT  FAIR      52  -1  11 N9G26     30.10R
CLINES CORNERS NOT AVBL
BELEN          FAIR      35   6  30 NE6       30.12S WCI  29
SOCORRO        FAIR      36   7  30 NW6       30.11R WCI  31

$$
NMZ524>526-539-540-211000-
SOUTHCENTRAL MOUNTAINS

CITY           SKY/WX    TMP DP  RH WIND       PRES   REMARKS
RUIDOSO        FAIR      52  -2  11 NW22G37   30.08S

$$
NMZ527>531-211000-
NORTHEAST HIGHLANDS/NORTHEAST PLAINS

CITY           SKY/WX    TMP DP  RH WIND       PRES   REMARKS
LAS VEGAS      FAIR      41   7  24 E7        30.04R
RATON          FAIR      54  11  18 NW13      29.96F
CLAYTON        FAIR      52   8  17 N13G31    29.92R

$$
NMZ532>537-211000-
EASTCENTRAL PLAINS

CITY           SKY/WX    TMP DP  RH WIND       PRES   REMARKS
SANTA ROSA     FAIR      54  -3   9 W16       29.91R
TUCUMCARI      FAIR      43   7  22 W7        29.85R
CANNON AFB     FAIR      50  -1  12 NW15      29.86S
CLOVIS AIRPORT FAIR      46   6  19 NW14      29.85S

$$
NMZ028-029-538-211000-
SOUTHEAST PLAINS

CITY           SKY/WX    TMP DP  RH WIND       PRES   REMARKS
ROSWELL        FAIR      43  18  36 MISG      29.88S
ARTESIA        FAIR      52  19  28 W8        29.89R
CARLSBAD       FAIR      56  22  26 CALM      29.86F
HOBBS          FAIR      50  16  25 W13       29.86F


$$




USA.gov is the U.S. government's official web portal to all federal, state and local government web resources and services.